Zurück zum Katalog

COSMO

AktivWissenschaftSSO
NORAD 68460·PAYLOAD·🇺🇸 United States

Gestartet Mar 30, 2026 von Vandenberg Space Force Base

Loading…

Nächste Überflüge (nächste 24 Stunden)

TLE

AktuellSource: Space-Track

Epoche: Sep 14, 2026, 07:58 UTC

1 68460U 26067AW  26257.33198395  .00008495  00000-0  40267-3 0  9996
2 68460  97.4579 214.3966 0007843 110.9263 249.2812 15.19522486 25460

Verfolge COSMO in Echtzeit mit AllMySat

Download on the App Store